Weather History for Poplar Bluff, MO

Change the Weather History Date:

Thursday, February 7, 2013

  Actual Average Record
Temperature  
Mean Temperature 50 °F -  
Max Temperature 62 °F 42 °F 71 °F (1943)
Min Temperature 39 °F 23 °F 3 °F (1988)
Degree Days  
Heating Degree Days 14    
Moisture  
Dew Point 45 °F    
Average Humidity 76    
Maximum Humidity 94    
Minimum Humidity 58    
Precipitation  
Precipitation 0.33 in - - ()
Sea Level Pressure  
Sea Level Pressure 29.94 in    
Wind  
Wind Speed 5 mph (NW)    
Max Wind Speed 17 mph    
Max Gust Speed 23 mph    
Visibility 9 miles    
Events Rain    
Averages and records for this station are not official NWS values.
T = Trace of Precipitation, MM = Missing Value Source: NWS Daily Summary

Daily Weather History Graph

Daily Weather History Graph

Search for Another Location

Airport:

Trip Planner

Search our weather history database for the weather conditions in past years. The results will help you decide how hot, cold, wet, or windy it might be!

Date:

Astronomy

Feb. 07, 2013 Rise Set
Actual Time 6:57 AM CST 5:33 PM CST
Civil Twilight 6:30 AM CST 6:00 PM CST
Nautical Twilight 6:00 AM CST 6:31 PM CST
Astronomical Twilight 5:29 AM CST 7:01 PM CST
Moon 4:35 AM CST (2/7) 3:00 PM CST (2/7)
Length of Visible Light 11h 29m
Length of Day
10h 35m
Waning Crescent, 9% of the Moon is Illuminated
Feb 7
Waning Crescent
Feb 10
New
Feb 17
First Quarter
Feb 25
Full
Mar 4
Last Quarter

Hourly Weather History & Observations

Time (CST) Temp. Windchill Dew Point Humidity Pressure Visibility Wind Dir Wind Speed Gust Speed Precip Events Conditions
12:53 AM 45.0 °F 42.6 °F 34.0 °F 65% 30.07 in 10.0 mi NE 4.6 mph - N/A   Clear
1:53 AM 44.1 °F 41.5 °F 35.1 °F 71% 30.05 in 10.0 mi NE 4.6 mph - N/A   Mostly Cloudy
2:53 AM 42.1 °F 40.2 °F 35.1 °F 76% 30.04 in 10.0 mi NE 3.5 mph - N/A   Scattered Clouds
3:53 AM 42.1 °F 39.2 °F 34.0 °F 73% 30.01 in 10.0 mi NE 4.6 mph - N/A   Clear
4:53 AM 43.0 °F 40.3 °F 33.1 °F 68% 30.00 in 10.0 mi East 4.6 mph - N/A   Overcast
5:53 AM 39.9 °F 37.8 °F 34.0 °F 79% 30.00 in 10.0 mi North 3.5 mph - N/A   Overcast
6:53 AM 43.0 °F - 34.0 °F 71% 29.99 in 10.0 mi Calm Calm - N/A   Overcast
7:53 AM 44.1 °F 42.5 °F 35.1 °F 71% 29.99 in 10.0 mi NE 3.5 mph - N/A   Overcast
8:53 AM 46.9 °F - 37.0 °F 68% 29.99 in 10.0 mi Calm Calm - N/A   Overcast
9:53 AM 50.0 °F - 37.9 °F 63% 29.98 in 10.0 mi Calm Calm - N/A   Overcast
10:40 AM 51.8 °F - 37.4 °F 58% 29.97 in 9.0 mi Calm Calm - N/A   Overcast
10:53 AM 52.0 °F - 37.9 °F 59% 29.97 in 9.0 mi South 3.5 mph - N/A   Overcast
11:53 AM 55.0 °F - 41.0 °F 59% 29.96 in 10.0 mi SSW 4.6 mph - N/A   Overcast
12:09 PM 55.4 °F - 42.8 °F 63% 29.94 in 10.0 mi SSW 5.8 mph - N/A   Overcast
12:44 PM 57.2 °F - 44.6 °F 63% 29.92 in 10.0 mi SSW 5.8 mph - N/A   Overcast
12:53 PM 57.0 °F - 43.0 °F 59% 29.92 in 10.0 mi SSW 5.8 mph - N/A   Mostly Cloudy
1:53 PM 60.1 °F - 48.0 °F 64% 29.89 in 10.0 mi South 4.6 mph - N/A   Mostly Cloudy
2:42 PM 62.6 °F - 51.8 °F 68% 29.87 in 10.0 mi SSW 9.2 mph - N/A   Mostly Cloudy
2:53 PM 62.1 °F - 51.1 °F 67% 29.88 in 10.0 mi SW 6.9 mph - N/A   Overcast
3:32 PM 60.8 °F - 53.6 °F 77% 29.87 in 10.0 mi SSW 11.5 mph - N/A   Mostly Cloudy
3:53 PM 61.0 °F - 54.0 °F 78% 29.87 in 10.0 mi SSW 9.2 mph - N/A   Overcast
4:53 PM 60.1 °F - 53.1 °F 78% 29.87 in 10.0 mi SSW 5.8 mph - N/A   Overcast
5:53 PM 59.0 °F - 54.0 °F 83% 29.87 in 10.0 mi Calm Calm - 0.00 in Rain Light Rain
6:53 PM 57.9 °F - 55.0 °F 90% 29.88 in 6.0 mi NW 6.9 mph - 0.01 in Rain Light Rain
7:02 PM 57.2 °F - 55.4 °F 94% 29.88 in 5.0 mi West 3.5 mph - 0.01 in Rain Light Rain
7:45 PM 57.2 °F - 53.6 °F 88% 29.88 in 7.0 mi WNW 3.5 mph - 0.04 in Rain Light Rain
7:53 PM 55.9 °F - 54.0 °F 93% 29.89 in 4.0 mi NW 5.8 mph - 0.04 in Rain Rain
7:59 PM 55.4 °F - 53.6 °F 94% 29.89 in 1.8 mi WNW 6.9 mph - 0.05 in Rain Heavy Rain
8:11 PM 55.4 °F - 53.6 °F 94% 29.89 in 2.5 mi NW 6.9 mph - 0.11 in Rain Rain
8:17 PM 55.4 °F - 53.6 °F 94% 29.89 in 3.0 mi NW 8.1 mph - 0.12 in Rain Light Rain
8:53 PM 55.9 °F - 53.1 °F 90% 29.91 in 4.0 mi Calm Calm - 0.21 in Rain Rain
9:53 PM 55.0 °F - 51.1 °F 86% 29.91 in 10.0 mi North 11.5 mph - 0.07 in   Overcast
10:13 PM 55.4 °F - 50.0 °F 82% 29.92 in 10.0 mi NNW 13.8 mph 20.7 mph N/A   Overcast
10:46 PM 53.6 °F - 48.2 °F 82% 29.93 in 10.0 mi NNW 11.5 mph - N/A   Overcast
10:53 PM 54.0 °F - 48.0 °F 80% 29.94 in 10.0 mi NNW 12.7 mph - N/A   Overcast
11:01 PM 53.6 °F - 48.2 °F 82% 29.94 in 10.0 mi NNW 12.7 mph - N/A   Overcast
11:42 PM 51.8 °F - 44.6 °F 76% 29.96 in 10.0 mi North 16.1 mph 23.0 mph N/A   Overcast
11:53 PM 52.0 °F - 45.0 °F 77% 29.96 in 10.0 mi NNW 17.3 mph 23.0 mph N/A   Overcast